Weather in Karlovka

Russia / Saratov Oblast     51°48′03″N   49°30′49″E
temp.,
°C
wind,
m/s
gust,
m/s
humid.,
%
clouds,
%
prec.,
mm/h
press.,
hPa
HPBL,
m
21 april, wed
wed2101:00+6se101844100 0.0 1023702
04:00+5se101851100 0.1 1023674
07:00+5se91847100 0.1 1023673
10:00+5se91754100 0.1 1024778
13:00+4sse101772100 1.3 1024740
16:00+3se91890100 10.2 1024654
19:00+4sse91691100 2.6 1024706
22:00+4sse71594100 4.4 1024600
22 april, thu
thu2201:00+5sse81594100 4.4 1025617
04:00+5se61285100 6.2 1025415
07:00+6sse51181100 0.1 1025374
10:00+7sse61082100 0.1 1026477
13:00+7sse6876100 0.0 1027608
16:00+10se6768100 0.0 1026882
19:00+7se5883100 0.0 1026501
22:00+6se4689100 0.0 1026481
23 april, fri
fri2301:00+6ese3495100 0.0 1026201
04:00+6e249596 0.0 1025133
07:00+5ene3592100 0.0 1025178
10:00+10ene5770100 0.0 1024604
13:00+14ene5653100 0.0 10221062
16:00+13ese5556100 0.0 1021903
19:00+9se5784100 0.0 1021302
22:00+8ese5993100 1.1 1020572
24 april, sat
sat2401:00+8ene2594100 1.0 1018263
04:00+8nne2594100 1.9 1016245
07:00+7nne2593100 0.2 1015317
10:00+8nnw3486100 0.2 1015373
13:00+10wnw34747 0.1 1015623
16:00+13w3557100 0.1 10141505
19:00+12se3469100 0.0 101480
22:00+11sse6117729 0.0 1013222
25 april, sun
sun2501:00+10ssw5118781 0.3 1013296
04:00+9wsw599080 0.6 1014575
07:00+7w48830 0.0 1016454
10:00+11wsw46552 0.0 10161122
13:00+14ssw68407 0.0 10162051
16:00+15sw7114099 0.0 10142428
19:00+12sw51056100 0.1 1015440
22:00+8wnw3766100 0.1 1017198